Location: Unspecified
(0.0000°N, 0.0000°E)
Time: 19:49:06
(UTC+00:00)

ARIANE 1 DEB - Pass Details

Date: 22 February 2026
Orbit: 376 x 19604 km, 19.8° (Epoch: 20 January)

Event Time Altitude Azimuth Distance (km) Brightness Sun altitude
Rises 21:03:30 0° 288° (WNW) 17,498 ? -41.7°
Reaches altitude 10° 21:31:18 10° 283° (WNW) 11,181 ? -48.5°
Enters shadow 21:56:45 44° 247° (WSW) 2,720 ? -54.6°
